Regional Weather Roundup
Issued by NWS

Home | Current Version | Previous Version | Graphics & Text | Print | Product List | Glossary On
Versions: 1 2 3 4 5 6 7 8 9 10 11 12 13 14 15 16 17 18 19 20 21 22 23 24 25 26 27 28 29 30 31 32 33 34 35 36 37 38 39 40 41 42 43 44 45 46 47 48 49 50
408
ASUS43 KMKX 291521
RWRWI

WISCONSIN REGIONAL WEATHER ROUNDUP
NATIONAL WEATHER SERVICE MILWAUKEE/SULLIVAN WI
1000 AM CDT SUN MAY 29 2016

NOTE: "FAIR" INDICATES FEW OR NO CLOUDS BELOW 12,000 FEET WITH NO
SIGNIFICANT WEATHER AND/OR OBSTRUCTIONS TO VISIBILITY.

WIZ001-002-006>008-014>016-023>028-291600-
NORTHWEST WISCONSIN

CITY           SKY/WX    TMP DP  RH WIND       PRES   REMARKS
SUPERIOR ARPT  CLOUDY    64  60  88 W9        29.83R
ASHLAND        CLOUDY    62  58  86 SW8G16    29.83R
HAYWARD        LGT RAIN  61  58  90 SW6       29.86S FOG
SIREN          CLOUDY    63  59  86 W10       29.88S
CUMBERLAND     CLOUDY    61  59  94 W10       29.89R
RICE LAKE      CLOUDY    64  58  81 W12       29.90R
CHETEK         CLOUDY    64  60  87 W6        29.89S
LADYSMITH      CLOUDY    63  59  87 SW9       29.90R FOG
EAU CLAIRE     HVY RAIN  63  61  93 W9        29.89S FOG
MENOMONIE      DRIZZLE   63  63  99 W9        29.91R
NEW RICHMOND   CLOUDY    63  61  93 W8        29.92R
OSCEOLA        CLOUDY    63  63 100 W10       29.94R
$$

WIZ003>005-009-010-017-018-291600-
NORTH CENTRAL WISCONSIN

CITY           SKY/WX    TMP DP  RH WIND       PRES   REMARKS
MANITOWISH WTR NOT AVBL
ARBOR VITAE    CLOUDY    63  61  91 W9        29.84S
WOODRUFF       CLOUDY    63  61  91 W9        29.84S
RHINELANDER    LGT RAIN  63  59  87 W12       29.86S
EAGLE RIVER      N/A     64  60  85 SW12      29.84S
LAND O LAKES   LGT RAIN  64  62  93 W6        29.84F
PHILLIPS       CLOUDY    61  59  91 W6        29.86R
TOMAHAWK       CLOUDY    65  58  78 W15       29.87S
MEDFORD        CLOUDY    62  60  94 W8        29.89R
MERRILL        CLOUDY    64  62  94 W9        29.87S
$$

WIZ029-030-035-036-043>047-291600-
CENTRAL WISCONSIN

CITY           SKY/WX    TMP DP  RH WIND       PRES   REMARKS
WAUSAU         CLOUDY    67  61  81 W13       29.86S
MOSINEE        CLOUDY    63  63 100 W9        29.89R
MARSHFIELD     CLOUDY    65  59  81 W15       29.89S
STEVENS POINT  CLOUDY    61  60  97 W7        29.89S
WAUPACA        RAIN      70  63  80 SW10      29.89S
WAUTOMA        LGT RAIN  64  63  94 W12       29.91R
WISC RAPIDS    CLOUDY    67  60  78 W9        29.91R
CAMP DOUGLAS   PTSUNNY   66  66 100 W16       29.92R
$$

WIZ011>013-019>022-031-037>040-048>050-291600-
NORTHEAST WISCONSIN

CITY           SKY/WX    TMP DP  RH WIND       PRES   REMARKS
ANTIGO         RAIN      61  60  97 W13G24    29.87R
SHAWANO        CLOUDY    70  61  73 SW9       29.86S
OCONTO         CLOUDY    69  65  86 SW6       29.85S
STURGEON BAY   NOT AVBL
GREEN BAY      CLOUDY    69  62  78 SW12G22   29.87S
MANITOWOC      PTSUNNY   70  62  76 S12       29.89F
APPLETON       CLOUDY    64  64 100 SW16      29.88R
CLINTONVILLE   CLOUDY    68  61  77 SW12      29.86F
OSHKOSH        CLOUDY    67  60  78 SW8G20    29.89S
$$

WIZ032>034-041-042-053>061-291600-
SOUTHWEST WISCONSIN

CITY           SKY/WX    TMP DP  RH WIND       PRES   REMARKS
LA CROSSE      CLOUDY    70  60  70 W10       29.93S
SPARTA         CLOUDY    66  60  80 W9        29.94R
VIROQUA        CLOUDY    65  59  80 W12G17    29.97R
BOSCOBEL       PTSUNNY   71  61  70 W10       29.97S
PRAIRIE DU CHI PTSUNNY   71  58  64 W13       29.99R
PLATTEVILLE    PTSUNNY   69  62  79 W14G22    30.00R
$$

WIZ056-057-062-063-064-067-068-291600-
SOUTH CENTRAL WISCONSIN

CITY           SKY/WX    TMP DP  RH WIND       PRES   REMARKS
REEDSBURG      PTSUNNY   69  61  76 W13G20    29.94R
BARABOO/DELLS  CLOUDY    68  58  69 W18       29.94R
LONE ROCK      PTSUNNY   70  60  70 W14       29.97R
MINERAL POINT  PTSUNNY   70  61  73 W15G22    29.99R
MADISON        PTSUNNY   70  60  70 W12G18    29.95R
MIDDLETON      PTSUNNY   70  62  74 W15G21    29.96R
WATERTOWN      CLOUDY    67  61  80 SW13G20   29.95R
MONROE         CLOUDY    66  59  77 W15       29.99R
JANESVILLE     CLOUDY    70  61  73 W13G20    29.98R
$$

WIZ051-052-058>065-066-070>072-291600-
SOUTHEAST WISCONSIN

CITY           SKY/WX    TMP DP  RH WIND       PRES   REMARKS
MILWAUKEE      PTSUNNY   72  60  66 SW15      29.95S
WAUKESHA       CLOUDY    66  57  72 SW12      29.97R
MILWAUKEE/TIMM PTSUNNY   72  57  60 SW17      29.95R
RACINE         MOSUNNY   73  59  61 SW15G23   29.97R
BURLINGTON     CLOUDY    69  59  70 SW17G23   29.97S
KENOSHA        MOSUNNY   73  61  65 SW16G26   29.97R
FOND DU LAC    CLOUDY    68  61  78 SW13G18   29.91S
SHEBOYGAN      PTSUNNY   70  62  76 SW14      29.91S
WEST BEND      CLOUDY    68  61  77 SW10      29.94R
JUNEAU         CLOUDY    66  61  82 SW12      29.95R
$$

LSZ147-162-291600-
LAKE SUPERIOR

STATION/POSITION TIME  TEMP    WIND        PRES    WAVE
                       AIR SEA DIR/SP/G            HT/PER
                 (UTC) (F)     (DEG/KT/KT) (MB)    (FT/S)
W MID LAKE BUOY  1450   41 38  240/  6/  8 1009.0F   0
DEVILS ISLAND    1500   54     220/ 11/ 13 1009.1F
PORT WING        1440   61     220/  7/ 12 1009.8
SAXON HARBOR     1440   62     210/  6/  9 1009.5R
$$

LMZ867-665-643>646-291600-
LAKE MICHIGAN

STATION/POSITION TIME  TEMP    WIND        PRES    WAVE
                       AIR SEA DIR/SP/G            HT/PER
                 (UTC) (F)     (DEG/KT/KT) (MB)    (FT/S)
CHAMBERS ISLAND  1440   69     180/ 10/ 14 1010.8F
N MID LAKE BUOY  1450   49 46  190/ 14/ 17 1011.4F   2/ 5
NORTHPORT PIER   1400   56     140/  8/ 10 1011.5F
SISTER BAY       1405   71     160/  9/ 12   N/A
ALGOMA LAKESHORE 1417          220/  9/ 11   N/A
KEWAUNEE LAKESHO 1500   52     170/ 12/ 15 1011.3F
SHEBOYGAN LAKESH 1500   61     180/ 16/ 16 1012.9F
PORT WASHINGTON  1430   67     210/  8/ 14 1013.9S
S MID LAKE BUOY  1450   54 50  160/ 12/ 14 1014.7S   1/ 3
KENOSHA   LAKESH 1500   73     220/ 14/ 23 1014.6R
$$

TC  - TEMPERATURE IN CELSIUS
VSB - VISIBILITY IN STATUTE MILES
WCI - WIND CHILL INDEX
HX  - HEAT INDEX





USA.gov is the U.S. government's official web portal to all federal, state and local government web resources and services.